This demonstration page uses our WeatherBlox Daily Observations layout. Learn more.

Hourly Observations for March 7, 2018

Temp ( °F °C ) Dew Point ( °F °C ) Humidity (%) Winds ( mph kmh ) Pressure ( in mb ) Visibility ( mi km ) Precip ( " mm )
12:15 am 00:15 Clear 24 -4.7 20 -6.8 85 85 NNW 10 17 30.39 1029 10 16.0934 0 0
12:35 am 00:35 Clear 23 -5 19 -7 86 86 N 8 13 30.39 1029 10 16.0934 0 0
12:55 am 00:55 Clear 22 -5.5 19 -7.3 87 87 N 7 11 30.39 1029 10 16.0934 0 0
1:15 am 01:15 Clear 22 -5.8 19 -7.5 88 88 NNW 8 13 30.39 1029 10 16.0934 0 0
1:35 am 01:35 Clear 20 -6.5 18 -7.7 91 91 NW 6 9 30.42 1030 10 16.0934 0 0
1:55 am 01:55 Clear 19 -7.5 17 -8.6 92 92 W 6 9 30.45 1031 10 16.0934 0 0
2:15 am 02:15 Clear 18 -7.8 16 -9.1 91 91 W 6 9 30.45 1031 10 16.0934 0 0
2:35 am 02:35 Clear 18 -7.6 17 -8.6 93 93 WNW 7 11 30.45 1031 10 16.0934 0 0
2:55 am 02:55 Clear 19 -7.1 16 -8.9 87 87 WNW 7 11 30.42 1030 10 16.0934 0 0
3:15 am 03:15 Clear 19 -7.5 16 -9.1 88 88 WNW 8 13 30.42 1030 10 16.0934 0 0
3:35 am 03:35 Clear 18 -7.8 15 -9.6 87 87 W 8 13 30.42 1030 10 16.0934 0 0
3:55 am 03:55 Clear 17 -8.3 14 -9.9 88 88 W 9 15 30.42 1030 10 16.0934 0 0
4:15 am 04:15 Clear 18 -7.8 15 -9.6 87 87 W 8 13 30.42 1030 10 16.0934 0 0
4:35 am 04:35 Clear 18 -7.7 15 -9.7 86 86 W 9 15 30.42 1030 10 16.0934 0 0
4:55 am 04:55 Clear 18 -7.7 14 -10 84 84 WNW 8 13 30.42 1030 10 16.0934 0 0
5:15 am 05:15 Clear 17 -8.2 13 -10.6 83 83 WNW 5 7 30.42 1030 10 16.0934 0 0
5:35 am 05:35 Clear 18 -8 13 -10.3 84 84 WNW 7 11 30.42 1030 10 16.0934 0 0
5:55 am 05:55 Clear 18 -7.8 13 -10.5 81 81 WNW 7 11 30.42 1030 10 16.0934 0 0
6:15 am 06:15 Clear 18 -7.7 13 -10.5 81 81 WNW 7 11 30.42 1030 10 16.0934 0 0
6:35 am 06:35 Clear 19 -7.1 13 -10.5 77 77 WNW 9 15 30.39 1029 10 16.0934 0 0
6:55 am 06:55 Clear 19 -7.2 13 -10.5 78 78 WNW 6 9 30.39 1029 10 16.0934 0 0
7:15 am 07:15 Sunny 17 -8.4 12 -11.1 81 81 WNW 6 9 30.42 1030 10 16.0934 0 0
7:35 am 07:35 Sunny 18 -8 13 -10.5 82 82 WNW 6 9 30.42 1030 10 16.0934 0 0
7:55 am 07:55 Sunny 20 -6.4 15 -9.5 79 79 NW 7 11 30.39 1029 10 16.0934 0 0
8:15 am 08:15 Sunny 25 -4.1 17 -8.1 74 74 NW 10 17 30.36 1028 10 16.0934 0 0
8:35 am 08:35 Sunny 27 -2.8 18 -8 68 68 NW 15 24 30.36 1028 10 16.0934 0 0
8:55 am 08:55 Sunny 28 -2 16 -8.8 60 60 NW 14 22 30.36 1028 10 16.0934 0 0
9:15 am 09:15 Sunny 30 -1.3 15 -9.7 53 53 NW 14 22 30.33 1027 10 16.0934 0 0
9:35 am 09:35 Sunny 32 -0.2 13 -10.7 45 45 NNW 12 19 30.33 1027 10 16.0934 0 0
9:55 am 09:55 Sunny 33 0.3 12 -11 43 43 NW 12 19 30.33 1027 10 16.0934 0 0
10:15 am 10:15 Sunny 34 1 13 -10.5 42 42 NW 14 22 30.33 1027 10 16.0934 0 0
10:35 am 10:35 Sunny 35 1.4 13 -10.4 41 41 NNW 15 24 30.33 1027 10 16.0934 0 0
10:55 am 10:55 Sunny 37 2.6 15 -9.7 40 40 NNW 10 17 30.3 1026 10 16.0934 0 0
11:15 am 11:15 Partly Cloudy 38 3.1 15 -9.7 39 39 NW 14 22 30.3 1026 10 16.0934 0 0
11:35 am 11:35 Partly Cloudy 39 3.8 15 -9.6 37 37 NW 14 22 30.3 1026 10 16.0934 0 0
11:55 am 11:55 Sunny 41 5 15 -9.2 35 35 NW 15 24 30.27 1025 10 16.0934 0 0
12:15 pm 12:15 Sunny 41 4.8 16 -9.1 36 36 NW 13 20 30.24 1024 10 16.0934 0 0
12:35 pm 12:35 Partly Cloudy 43 5.9 16 -9 34 34 NW 12 19 30.24 1024 10 16.0934 0 0
12:55 pm 12:55 Partly Cloudy 44 6.8 17 -8.5 33 33 NW 16 26 30.24 1024 10 16.0934 0 0
1:15 pm 13:15 Sunny 45 7 17 -8.5 33 33 NNW 13 20 30.21 1023 10 16.0934 0 0
1:35 pm 13:35 Sunny 45 7.3 17 -8.5 32 32 NNW 14 22 30.21 1023 10 16.0934 0 0
1:55 pm 13:55 Sunny 45 7.1 17 -8.5 32 32 NW 14 22 30.21 1023 10 16.0934 0 0
2:15 pm 14:15 Sunny 46 7.7 17 -8.4 31 31 NNW 14 22 30.18 1022 10 16.0934 0 0
2:35 pm 14:35 Partly Cloudy 45 7.3 17 -8.4 32 32 NNW 14 22 30.15 1021 10 16.0934 0 0
2:55 pm 14:55 Partly Cloudy 46 8 17 -8.3 31 31 N 10 17 30.15 1021 10 16.0934 0 0
3:15 pm 15:15 Mostly Cloudy 45 7 16 -8.8 32 32 NNW 8 13 30.18 1022 10 16.0934 0 0
3:35 pm 15:35 Mostly Cloudy 46 8 18 -8 32 32 N 17 28 30.15 1021 10 16.0934 0 0
3:55 pm 15:55 Partly Cloudy 45 7.2 17 -8.1 33 33 N 15 24 30.15 1021 10 16.0934 0 0
4:15 pm 16:15 Mostly Cloudy 45 7.3 18 -7.9 33 33 NNW 14 22 30.15 1021 10 16.0934 0 0
4:35 pm 16:35 Partly Cloudy 45 7 18 -7.9 34 34 N 14 22 30.18 1022 10 16.0934 0 0
4:55 pm 16:55 Sunny 44 6.6 18 -7.7 36 36 N 12 19 30.18 1022 10 16.0934 0 0
5:15 pm 17:15 Sunny 44 6.4 19 -7.5 37 37 N 12 19 30.18 1022 10 16.0934 0 0
5:35 pm 17:35 Sunny 42 5.8 18 -7.6 38 38 N 18 30 30.21 1023 10 16.0934 0 0
5:55 pm 17:55 Sunny 41 4.9 19 -7.5 41 41 N 12 19 30.21 1023 10 16.0934 0 0
6:15 pm 18:15 Sunny 39 3.9 18 -7.9 42 42 N 13 20 30.24 1024 10 16.0934 0 0
6:35 pm 18:35 Sunny 36 2.4 18 -8 47 47 N 10 17 30.24 1024 10 16.0934 0 0
6:55 pm 18:55 Clear 32 0.1 17 -8.4 53 53 NNE 9 15 30.27 1025 10 16.0934 0 0
7:15 pm 19:15 Clear 32 -0.1 17 -8.3 54 54 NNE 7 11 30.3 1026 10 16.0934 0 0
7:35 pm 19:35 Clear 28 -2.3 16 -9.1 60 60 NNE 8 13 30.33 1027 10 16.0934 0 0
7:55 pm 19:55 Clear 27 -2.8 15 -9.2 62 62 NNE 6 9 30.33 1027 10 16.0934 0 0
8:15 pm 20:15 Clear 26 -3.1 15 -9.3 63 63 NNE 3 6 30.33 1027 10 16.0934 0 0
8:35 pm 20:35 Clear 27 -2.8 15 -9.5 60 60 NNE 5 7 30.33 1027 10 16.0934 0 0
8:55 pm 20:55 Clear 24 -4.7 14 -10.1 66 66 NE 3 6 30.33 1027 10 16.0934 0 0
9:15 pm 21:15 Clear 25 -3.9 15 -9.7 64 64 Calm 30.33 1027 10 16.0934 0 0
9:35 pm 21:35 Clear 24 -4.4 15 -9.7 67 67 NNE 5 7 30.33 1027 10 16.0934 0 0
9:55 pm 21:55 Clear 22 -5.4 14 -10.2 69 69 NNE 7 11 30.36 1028 10 16.0934 0 0
10:15 pm 22:15 Clear 21 -6.2 14 -10.2 74 74 NNE 6 9 30.36 1028 10 16.0934 0 0
10:35 pm 22:35 Clear 22 -5.7 13 -10.4 70 70 Calm 30.36 1028 10 16.0934 0 0
10:55 pm 22:55 Clear 19 -7.1 12 -11.1 73 73 Calm 30.36 1028 10 16.0934 0 0
11:15 pm 23:15 Clear 19 -7.2 12 -11.2 73 73 Calm 30.36 1028 10 16.0934 0 0
11:35 pm 23:35 Clear 19 -7.1 13 -10.6 76 76 N 6 9 30.36 1028 10 16.0934 0 0
11:55 pm 23:55 Clear 19 -7.2 13 -10.8 76 76 Calm 30.36 1028 7 11.26538 0 0

Powered by AerisWeather